Hayward, CA

9:02 PM PDT on April 23, 2017 (GMT -0700)
Hayward Executive

Weather History for KHWD - May, 2014

Change the Weather History Date:

Monday, May 5, 2014

  Actual Average Record
Temperature  
Mean Temperature 59 °F 60 °F  
Max Temperature 65 °F 68 °F 86 °F (2011)
Min Temperature 53 °F 52 °F 46 °F (1999)
Degree Days  
Heating Degree Days 6    
Month to date heating degree days 14  
Since 1 July heating degree days 1976  
Cooling Degree Days 0    
Month to date cooling degree days 10  
Year to date cooling degree days 25  
Growing Degree Days 10 (Base 50)    
Moisture  
Dew Point 49 °F    
Average Humidity 71    
Maximum Humidity 86    
Minimum Humidity 55    
Precipitation  
Precipitation 0.00 in - 0.18 in (2005)
Month to date precipitation 0.00  
Year to date precipitation 4.66  
Since 1 July precipitation 5.86  
Sea Level Pressure  
Sea Level Pressure 30.04 in    
Wind  
Wind Speed 13 mph (WNW)    
Max Wind Speed 24 mph    
Max Gust Speed 32 mph    
Visibility 10 miles    
Events      
T = Trace of Precipitation, MM = Missing Value Source: NWS Daily Summary

Daily Weather History Graph

Daily Weather History Graph

Search for Another Location

Airport or City:

Trip Planner

Search our weather history database for the weather conditions in past years. The results will help you decide how hot, cold, wet, or windy it might be!

Date:

Astronomy

May. 05, 2014 Rise Set
Actual Time 6:08 AM PDT 8:02 PM PDT
Civil Twilight 5:39 AM PDT 8:31 PM PDT
Nautical Twilight 5:05 AM PDT 9:05 PM PDT
Astronomical Twilight 4:28 AM PDT 9:43 PM PDT
Moon 11:32 AM PDT (5/5) 12:50 AM PDT (5/5)
Length of Visible Light 14h 51m
Length of Day
13h 54m
Waxing Crescent, 37% of the Moon is Illuminated
May 5
Waxing Crescent
May 6
First Quarter
May 14
Full
May 21
Last Quarter
May 28
New

Hourly Weather History & Observations

Time (PDT) Temp. Dew Point Humidity Pressure Visibility Wind Dir Wind Speed Gust Speed Precip Events Conditions
12:16 AM 57.2 °F 51.8 °F 82% 30.05 in 10.0 mi WNW 9.2 mph - N/A   Scattered Clouds
12:54 AM 57.0 °F 51.1 °F 81% 30.08 in 10.0 mi WNW 11.5 mph - N/A   Clear
1:54 AM 57.0 °F 51.1 °F 81% 30.07 in 10.0 mi WNW 10.4 mph - N/A   Clear
2:54 AM 55.9 °F 50.0 °F 80% 30.06 in 10.0 mi WNW 8.1 mph - N/A   Partly Cloudy
3:54 AM 55.9 °F 48.9 °F 77% 30.06 in 10.0 mi WNW 10.4 mph - N/A   Clear
4:54 AM 55.0 °F 50.0 °F 83% 30.05 in 10.0 mi West 9.2 mph - N/A   Clear
5:49 AM 55.4 °F 50.0 °F 82% 30.03 in 10.0 mi WNW 12.7 mph - N/A   Mostly Cloudy
5:54 AM 55.0 °F 50.0 °F 83% 30.06 in 10.0 mi WNW 12.7 mph - N/A   Mostly Cloudy
6:54 AM 55.0 °F 51.1 °F 86% 30.06 in 10.0 mi WNW 8.1 mph - N/A   Mostly Cloudy
7:54 AM 55.9 °F 51.1 °F 84% 30.07 in 10.0 mi WNW 9.2 mph - N/A   Overcast
8:43 AM 57.2 °F 50.0 °F 77% 30.05 in 10.0 mi WNW 11.5 mph - N/A   Scattered Clouds
8:54 AM 57.9 °F 50.0 °F 75% 30.08 in 10.0 mi WNW 11.5 mph - N/A   Scattered Clouds
9:13 AM 57.2 °F 50.0 °F 77% 30.05 in 10.0 mi West 9.2 mph - N/A   Mostly Cloudy
9:54 AM 59.0 °F 50.0 °F 72% 30.08 in 10.0 mi West 8.1 mph - N/A   Overcast
10:07 AM 59.0 °F 50.0 °F 72% 30.05 in 10.0 mi WNW 10.4 mph - N/A   Overcast
11:54 AM 63.0 °F 48.9 °F 60% 30.07 in 10.0 mi West 15.0 mph 20.7 mph N/A   Scattered Clouds
12:54 PM 63.0 °F 48.0 °F 58% 30.07 in 10.0 mi WNW 16.1 mph 24.2 mph N/A   Scattered Clouds
1:54 PM 64.0 °F 48.0 °F 56% 30.06 in 10.0 mi West 20.7 mph 24.2 mph N/A   Clear
2:54 PM 63.0 °F 48.0 °F 58% 30.04 in 10.0 mi West 16.1 mph 24.2 mph N/A   Partly Cloudy
3:54 PM 63.0 °F 46.0 °F 54% 30.02 in 10.0 mi WNW 15.0 mph 23.0 mph N/A   Clear
4:54 PM 61.0 °F 44.1 °F 54% 30.01 in 10.0 mi West 23.0 mph 29.9 mph N/A   Clear
5:54 PM 60.1 °F 46.9 °F 62% 30.01 in 10.0 mi West 23.0 mph 32.2 mph N/A   Clear
6:54 PM 57.9 °F 46.9 °F 67% 30.01 in 10.0 mi West 20.7 mph 31.1 mph N/A   Partly Cloudy
7:54 PM 57.0 °F 45.0 °F 64% 30.00 in 10.0 mi WNW 18.4 mph 27.6 mph N/A   Clear
8:54 PM 55.0 °F 46.0 °F 72% 29.99 in 10.0 mi WNW 16.1 mph 26.5 mph N/A   Clear
9:54 PM 55.9 °F 46.0 °F 69% 30.00 in 10.0 mi WNW 10.4 mph - N/A   Partly Cloudy
10:54 PM 55.0 °F 45.0 °F 69% 29.99 in 10.0 mi WNW 8.1 mph - N/A   Clear
11:54 PM 54.0 °F 44.1 °F 69% 29.99 in 10.0 mi NW 6.9 mph - N/A   Clear